GRBBeta
1 60237U 24128C   26252.49326744  .00002292  00000-0  16477-3 0  9994
2 60237  61.9888 280.3606 0028384 153.1729 207.0839 15.07147182118979
Curium One
1 60242U 24128H   26252.49701591  .00004874  00000-0  28051-3 0  9996
2 60242  61.9766 266.9136 0027320 148.1860 212.0893 15.13563659119219
ROBUSTA-3A
1 60243U 24128J   26252.44460144  .00004190  00000-0  24875-3 0  9999
2 60243  61.9847 270.0495 0029315 145.2850 215.0166 15.12668849119163
CatSat
1 60246U 24125J   26252.58301459  .00086419  00000-0  69473-3 0  9994
2 60246  97.1970 106.8419 0014936 217.7241 142.2976 15.70551596120580
AO-123
1 61781U 24199AY  26252.58207544  .00006914  00000-0  19410-3 0  9998
2 61781  97.2862 120.4982 0013759  13.5944 346.5668 15.36775812146886
LASARsat
1 62391U 24247Q   26252.13773078  .00044343  00000-0  73022-3 0  9998
2 62391  44.9723 148.6226 0008259 164.8391 195.2750 15.51644049 96336
CroCube
1 62394U 24247T   26252.07479924  .00053560  00000-0  79431-3 0  9998
2 62394  44.9698 144.6410 0008889 175.1155 184.9827 15.54457801 96378
JINJUSat 1B
1 63210U 25052A   26250.69022819  .00014294  00000-0  41143-3 0  9994
2 63210  97.3884 147.6472 0004606 124.3920 235.7760 15.35867210 82751
NUSHSAT 1
1 63211U 25052B   26252.14458816  .00020432  00000-0  52934-3 0  9998
2 63211  97.3859 150.0009 0004396 121.7852 238.3822 15.39059596 83044
TEVEL2-4
1 63213U 25052D   26252.15550832  .00017943  00000-0  49170-3 0  9993
2 63213  97.3777 148.7983 0003698 130.0072 230.1498 15.37354325 83002
TEVEL2-5
1 63214U 25052E   26252.51218003  .00015617  00000-0  43131-3 0  9992
2 63214  97.3777 149.0778 0003614 130.2501 229.9060 15.37143487 83057
TEVEL2-6
1 63215U 25052F   26252.46130119  .00015893  00000-0  43934-3 0  9995
2 63215  97.3779 149.0120 0003453 129.9806 230.1743 15.37111184 83045
TEVEL2-1
1 63217U 25052H   26251.67571232  .00020663  00000-0  58239-3 0  9999
2 63217  97.3753 147.7413 0003187 143.6305 216.5156 15.36450889 82907
TEVEL2-3
1 63218U 25052J   26252.51339059  .00015223  00000-0  42856-3 0  9997
2 63218  97.3757 148.6160 0003079 138.8624 221.2853 15.36551599 83033
TEVEL2-2
1 63219U 25052K   26251.67538393  .00020785  00000-0  58553-3 0  9996
2 63219  97.3755 147.7449 0003198 144.1611 215.9848 15.36464967 82901
TEVEL2-9
1 63237U 25052AD  26252.15765249  .00014707  00000-0  44508-3 0  9994
2 63237  97.3814 147.4084 0005413 180.7540 179.3696 15.34273919 82893
TEVEL2-7
1 63238U 25052AE  26252.47735092  .00012904  00000-0  39528-3 0  9996
2 63238  97.3817 147.6045 0005405 180.7171 179.4065 15.33922017 82932
TEVEL2-8
1 63239U 25052AF  26252.61678905  .00012589  00000-0  38576-3 0  9993
2 63239  97.3817 147.7185 0005462 180.4277 179.6962 15.33915917 82957
SPIRONE
1 66657U 25274H   26252.52776183  .00001160  00000-0  11446-3 0  9993
2 66657  97.7475 180.6262 0013601  92.8936 267.3841 14.93825403 42819
K-HERO
1 66660U 25274L   26252.04076122  .00001252  00000-0  12190-3 0  9999
2 66660  97.7483 180.3676 0015444  98.0839 262.2134 14.94222488 42752
SNUGLITE-III DURI
1 66661U 25274M   26252.56294193  .00001358  00000-0  13172-3 0  9995
2 66661  97.7481 180.9035 0016109  97.5580 262.7471 14.94232327 42833
SAKHACUBE-CHOLBON
1 67290U 25313AU  26251.46125512  .00009302  00000-0  36147-3 0  9998
2 67290  97.3873 325.5040 0010309  67.4728 292.7601 15.26225398 38673
RS95S (QMR-KWT-2)
1 67291U 25313AV  26251.74893317  .00015227  00000-0  55451-3 0  9997
2 67291  97.3874 326.1765 0009628  64.5802 295.6434 15.28257600 38746
Ten-Koh2
1 68261U 25241B   26251.47346566  .00005119  00000-0  21674-3 0  9993
2 68261  51.6634 282.9569 0007897  59.3734 300.8022 15.24814607 27612
JACK-002
1 68417U 26067B   26252.43354766  .00005844  00000-0  27213-3 0  9991
2 68417  97.4651 210.0759 0002421  36.7255 323.4146 15.20300557 24749
DISCO 2
1 68431U 26067R   26252.40056505  .00006669  00000-0  31097-3 0  9995
2 68431  97.4682 210.0417 0004084  74.0133 286.1552 15.20190956 24732
HADES-SA (SpinnyONE)
1 68446U 26067AG  26252.33254817  .00015771  00000-0  69917-3 0  9995
2 68446  97.4472 209.5615 0008304 127.8871 232.3117 15.21662050 24711
PARUS-6U1
1 68456U 26067AS  26252.43660367  .00004845  00000-0  23953-3 0  9998
2 68456  97.4637 209.5886 0007089 120.7824 239.4108 15.18280591 24714
SAL-E
1 68458U 26067AU  26252.41027021  .00006045  00000-0  29351-3 0  9994
2 68458  97.4558 209.4644 0007204 127.6859 232.5030 15.18814326 24719
FSI-SAT 2
1 68792U 26088A   26252.40592536  .00003417  00000-0  22930-3 0  9991
2 68792  97.5185  39.6435 0014396 173.4252 186.7167 15.07404278 20978
OrigamiSat 2
1 68795U 26088D   26252.41054260  .00010978  00000-0  66938-3 0  9998
2 68795  97.5170  40.0938 0015392 146.0676 214.1541 15.10424081 21007
ARICA 2
1 68796U 26088E   26251.86140308  .00003358  00000-0  21581-3 0  9995
2 68796  97.5172  39.4316 0016288 147.1342 213.0903 15.08998333 20911
WASEDA-SAT-ZERO-II
1 68797U 26088F   26252.23624941  .00005741  00000-0  36153-3 0  9997
2 68797  97.5164  39.8457 0015970 146.1383 214.0869 15.09454485 20978
MANGARO-II-Piscus
1 68798U 26088G   26252.35993324  .00003770  00000-0  23950-3 0  9996
2 68798  97.5181  40.0077 0019585 149.1222 211.1164 15.09295712 20995
CO-128
1 69912U 26156AV  26252.50560343  .00000894  00000-0  96180-4 0  9999
2 69912  97.7482 151.8142 0001246 321.3257  38.7872 14.90931022  9560
MARINA
1 69920U 26156BD  26252.45497605  .00001583  00000-0  16105-3 0  9996
2 69920  97.7451 151.8563 0006259 311.1070  48.9608 14.92144960  9560
IO-86
1 40931U          26199.45381863  .00000000  00000-0  77536-4 0    07
2 40931   6.0006 322.6653 0012733 338.8432 273.6875 14.79294310    03
LILIUM-4                
1 71922C 26067AC  26089.50133053 -.00014632  00000+0 -74472-3 0    04
2 71922  97.4497  49.1617 0004341   5.9603 355.7042 15.16896692    16
